Weather History for KATT - June, 2013

Change the Weather History Date:

Wednesday, June 12, 2013

  Actual Average Record
Temperature  
Mean Temperature 86 °F 82 °F  
Max Temperature 97 °F 92 °F 103 °F (1953)
Min Temperature 75 °F 72 °F 60 °F (1979)
Degree Days  
Heating Degree Days 0 0  
Month to date heating degree days 0 0  
Since 1 June heating degree days 0 0  
Since 1 July heating degree days 1251 1539  
Cooling Degree Days 21 17  
Month to date cooling degree days 205 192  
Year to date cooling degree days 829 805  
Since 1 June cooling degree days 205 192  
Growing Degree Days 36 (Base 50)    
Moisture  
Dew Point 71 °F    
Average Humidity 68    
Maximum Humidity 94    
Minimum Humidity 42    
Precipitation  
Precipitation 0.02 in 0.17 in 3.03 in (1957)
Month to date precipitation 0.21 2.00  
Year to date precipitation 13.89 15.53  
Snow  
Snow 0.00 in - - ()
Month to date snowfall 0.0  
Since 1 June snowfall 0.0  
Since 1 July snowfall T  
Snow Depth 0.00 in    
Sea Level Pressure  
Sea Level Pressure 30.01 in    
Wind  
Wind Speed 7 mph (South)    
Max Wind Speed 13 mph    
Max Gust Speed 21 mph    
Visibility 10 miles    
Events Rain , Thunderstorm    
T = Trace of Precipitation, MM = Missing Value Source: NWS Daily Summary

Daily Weather History Graph

Daily Weather History Graph

Search for Another Location

Airport or City:

Trip Planner

Search our weather history database for the weather conditions in past years. The results will help you decide how hot, cold, wet, or windy it might be!

Date:

Astronomy

Jun. 12, 2013 Rise Set
Actual Time 6:28 AM CDT 8:33 PM CDT
Civil Twilight 6:01 AM CDT 9:01 PM CDT
Nautical Twilight 5:27 AM CDT 9:34 PM CDT
Astronomical Twilight 4:51 AM CDT 10:10 PM CDT
Moon 9:57 AM CDT (6/12) 11:24 PM CDT (6/12)
Length of Visible Light 14h 59m
Length of Day
14h 04m
Waxing Crescent, 14% of the Moon is Illuminated
Jun 12
Waxing Crescent
Jun 16
First Quarter
Jun 23
Full
Jun 29
Last Quarter
Jul 8
New

Hourly Weather History & Observations

Time (CDT) Temp. Heat Index Dew Point Humidity Pressure Visibility Wind Dir Wind Speed Gust Speed Precip Events Conditions
12:51 AM 77.0 °F - 70.0 °F 79% 30.00 in 10.0 mi Variable 3.5 mph - N/A   Clear
1:51 AM 75.9 °F - 70.0 °F 82% 30.00 in 10.0 mi Calm Calm - N/A   Clear
2:25 AM 75.9 °F - 70.0 °F 82% 30.04 in 10.0 mi Calm Calm - N/A   Mostly Cloudy
2:39 AM 75.9 °F - 71.1 °F 85% 30.04 in 10.0 mi South 3.5 mph - N/A   Scattered Clouds
2:51 AM 75.9 °F - 71.1 °F 85% 29.99 in 10.0 mi South 3.5 mph - N/A   Partly Cloudy
3:51 AM 75.9 °F - 72.0 °F 87% 29.99 in 10.0 mi Variable 3.5 mph - N/A   Partly Cloudy
4:19 AM 75.9 °F - 72.0 °F 87% 30.03 in 10.0 mi Variable 3.5 mph - N/A   Mostly Cloudy
4:51 AM 75.9 °F - 72.0 °F 87% 30.00 in 10.0 mi SSW 5.8 mph - N/A   Overcast
5:27 AM 75.9 °F - 72.0 °F 87% 30.04 in 10.0 mi Calm Calm - N/A   Overcast
5:39 AM 75.9 °F - 72.0 °F 87% 30.04 in 10.0 mi SSW 3.5 mph - N/A   Overcast
5:51 AM 75.9 °F - 72.0 °F 87% 30.01 in 10.0 mi Variable 5.8 mph - N/A   Overcast
6:47 AM 75.2 °F - 73.4 °F 94% 30.05 in 10.0 mi South 5.8 mph - N/A   Overcast
6:51 AM 75.9 °F - 73.0 °F 91% 30.01 in 10.0 mi South 6.9 mph - N/A   Overcast
6:58 AM 75.9 °F - 73.0 °F 91% 30.05 in 10.0 mi South 8.1 mph - N/A   Overcast
7:16 AM 75.9 °F - 72.0 °F 87% 30.05 in 10.0 mi Variable 4.6 mph - N/A   Mostly Cloudy
7:24 AM 75.9 °F - 72.0 °F 87% 30.05 in 10.0 mi South 6.9 mph - N/A   Partly Cloudy
7:51 AM 77.0 °F - 73.0 °F 88% 30.02 in 10.0 mi South 6.9 mph - N/A   Scattered Clouds
7:55 AM 77.0 °F - 73.0 °F 88% 30.06 in 10.0 mi South 5.8 mph - N/A   Mostly Cloudy
8:51 AM 80.1 °F 83.8 °F 72.0 °F 76% 30.04 in 10.0 mi Variable 6.9 mph 18.4 mph N/A   Mostly Cloudy
9:36 AM 82.0 °F 87.4 °F 73.0 °F 74% 30.08 in 10.0 mi Variable 5.8 mph - N/A   Mostly Cloudy
9:51 AM 82.9 °F 88.0 °F 72.0 °F 69% 30.04 in 10.0 mi Variable 5.8 mph - N/A   Scattered Clouds
10:23 AM 84.9 °F 90.7 °F 72.0 °F 65% 30.07 in 10.0 mi South 6.9 mph - N/A   Mostly Cloudy
10:31 AM 86.0 °F 92.2 °F 72.0 °F 63% 30.07 in 10.0 mi South 8.1 mph 18.4 mph N/A   Mostly Cloudy
10:51 AM 87.1 °F 92.8 °F 71.1 °F 59% 30.03 in 10.0 mi SSW 8.1 mph - N/A   Scattered Clouds
11:51 AM 88.0 °F 92.9 °F 70.0 °F 55% 30.03 in 10.0 mi SSW 9.2 mph 16.1 mph N/A   Scattered Clouds
12:51 PM 91.0 °F 95.6 °F 69.1 °F 48% 30.03 in 10.0 mi South 10.4 mph 16.1 mph N/A   Clear
1:51 PM 93.9 °F 100.3 °F 70.0 °F 46% 30.00 in 10.0 mi SSW 8.1 mph - N/A   Scattered Clouds
2:51 PM 95.0 °F 100.7 °F 69.1 °F 43% 29.98 in 10.0 mi Variable 5.8 mph - N/A   Partly Cloudy
3:51 PM 96.1 °F 101.6 °F 69.1 °F 41% 29.96 in 10.0 mi Variable 6.9 mph - N/A   Mostly Cloudy
4:51 PM 84.9 °F 92.1 °F 73.9 °F 69% 29.95 in 4.0 mi South 8.1 mph 20.7 mph 0.00 in Rain Rain
5:09 PM 82.9 °F 90.2 °F 75.0 °F 77% 29.99 in 10.0 mi SSE 6.9 mph - 0.02 in Thunderstorm Thunderstorm
5:34 PM 84.0 °F 89.6 °F 72.0 °F 67% 29.98 in 10.0 mi SE 8.1 mph - 0.02 in   Partly Cloudy
5:51 PM 86.0 °F 90.7 °F 70.0 °F 59% 29.93 in 10.0 mi ESE 6.9 mph - 0.02 in   Clear
6:51 PM 87.1 °F 90.6 °F 68.0 °F 53% 29.94 in 10.0 mi SE 8.1 mph - N/A   Clear
7:51 PM 86.0 °F 88.2 °F 66.0 °F 51% 29.96 in 10.0 mi South 8.1 mph - N/A   Clear
8:51 PM 84.0 °F 87.0 °F 68.0 °F 58% 29.96 in 10.0 mi Variable 4.6 mph - N/A   Clear
9:51 PM 82.9 °F 86.5 °F 69.1 °F 63% 29.98 in 10.0 mi Variable 6.9 mph - N/A   Clear
10:51 PM 81.0 °F 84.4 °F 70.0 °F 69% 29.99 in 10.0 mi South 6.9 mph - N/A   Clear
11:51 PM 80.1 °F 83.6 °F 71.1 °F 74% 29.99 in 10.0 mi South 8.1 mph - N/A   Clear